STARLINK-1792, 46693

Orbit data source: Space-Track

STARLINK-1792, 46693 is a payload satellite owned by SpaceX/Seattle (US) in LEO that was launched on Sun, 18 Oct 2020 UTC via an FALCON 9 launch vehicle from the Air Force Eastern Test Range (AFETR). Payload-class satellites include a variety of spacecraft equipped with specific instruments for various scientific and technological missions. These include communications satellites like Starlink; space stations such as the ISS; scientific satellites like the Hubble; Earth observation satellites from companies like Planet Labs, Umbra, and HawkEye 360; GPS; miniature CubeSats for education and research; and military/defense satellites.

Loading next visibility...
Identifier
46693, 2020-073Z
Orbit
LEO
Last TLE update
15 hours ago
Origin
Manufacturer
SpaceX/Seattle
Mission
Partially operational Commercial Communications
Bus & Motor
STARLINK, Unknown motor
Mass
260 kg wet, ~248 kg dry
Launch date (UTC)
2020-10-18 (5 years ago)
Launch vehicle
FALCON 9
Launch site
Air Force Eastern Test Range (AFETR)
Object type
Payload
Rocket body
Debris
Shape & HBR
Box + 1 Pan, 8.86 m
Radar Cross Section
13.562 m², Large (>1 m²)

Expand to show TLE details & history

TLE from 15 hours ago
0 STARLINK-1792
1 46693U 20073Z   25191.37259352  .00093331  00000-0  92292-3 0  9990
2 46693  53.0203 185.1315 0009782  39.9119 320.2612 15.65075367261500
Epoch: 2025-07-10T08:56Z
TLE epoch observation values (Epoch: 2025-07-10T08:56:32.08Z)
Latitude
-0.00005°
Longitude
122.45798°
Altitude
368.845 km
Speed
7.692 km/s
True Right ascension
12h 20m 31s
True Declination
0° 00' 00"
Sunlit
Object was in daylight at epoch
Visualization orbit readout
Latitude
-47.41387°
Longitude
64.82102°
Altitude
390.967 km
Speed
7.674 km/s
Apparent Right ascension
04h 08m 33s
Apparent Declination
-63° 35' 60"
Sunlit
Object is in daylight
Visualization observer readout
Local Sidereal Time
12:15:07
Azimuth
215.164° SW
Elevation
-48.908°
Doppler factor
1
Orbital elements
Apogee altitude
379.909 km
Perigee altitude
366.701 km
Semi-major axis
6,751.442 km
Eccentricity
0.00098
Inclination
53.0203°
RAAN
185.1315°
Arg. of periapsis
39.9119°
True anomaly
Unknown
Mean anomaly
320.2612°
Eccentric anomaly
Unknown
Mean motion
3.91245 °/min
Orbital period
92.01 mins
BSTAR
0.00092292
Loading maneuver chart data...
Loading SW <> Apogee altitude chart data...

STARLINK-1792 Visibility forecast

Observer location: undefined°, undefined°

Span
Click to sort rows by Start time (UTC) header in descending order
Start Az.
Max El. time (UTC)
Max El. Az.
Max El.
End time (UTC)
End Az.
5 mins2025-07-11 01:57:58.483Z208.397° SW2025-07-11 02:00:58.483Z115.247° SE33.813°2025-07-11 02:02:58.483Z65.587° ENE
4 mins2025-07-11 08:24:58.483Z343.087° N2025-07-11 08:25:58.483Z13.478° NNE27.404°2025-07-11 08:28:58.483Z98.335° ESE
|